This demonstration page uses our WeatherBlox Daily Observations layout. Learn more.

Left ArrowRight Arrow

47.50024, -111.30081

Hourly Observations for May 20, 2022

Temp ( °F °C ) Dew Point ( °F °C ) Humidity (%) Winds ( mph kmh ) Pressure ( in mb ) Visibility ( mi km ) Precip ( " mm )
12:01 am 00:01 Cloudy with Light Snow 33 0.6 31 -0.6 92 92 NNW 10 17 30.01 1016 7 11 0.00 0.00
12:10 am 00:10 Cloudy 33 0.6 31 -0.6 92 92 NNW 12 19 30.01 1016 9 14 0.00 0.00
12:20 am 00:20 Cloudy 33 0.6 32 0 96 96 NNW 12 19 30.02 1017 10 16 0.00 0.00
12:28 am 00:28 Cloudy 34 1.1 32 0 92 92 NNW 13 20 30.01 1016 10 16 0.00 0.00
12:53 am 00:53 Cloudy 34 1.1 32 0 92 92 NNW 16 26 29.99 1016 10 16 0.00 0.00
1:09 am 01:09 Cloudy 34 1.1 32 0 92 92 NNW 14 22 30.02 1017 10 16 0.00 0.00
1:53 am 01:53 Cloudy 35 1.7 32 0 89 89 NW 12 19 29.98 1015 10 16 0.00 0.00
2:53 am 02:53 Cloudy 35 1.7 32 0 89 89 NNW 10 17 30.00 1016 10 16 0.00 0.00
3:53 am 03:53 Cloudy with Light Rain 36 2.2 33 0.6 89 89 NW 13 20 30.02 1017 10 16 0.00 0.00
4:12 am 04:12 Cloudy with Light Rain 36 2.2 33 0.6 89 89 NW 15 24 30.04 1017 10 16 0.01 0.25
4:23 am 04:23 Cloudy with Light Rain 36 2.2 34 1.1 93 93 NW 15 24 30.04 1017 10 16 0.01 0.25
4:48 am 04:48 Cloudy 36 2 34 1 93 93 NW 13 20 30.05 1018 10 16 0.01 0.25
4:53 am 04:53 Cloudy 36 2.2 34 1.1 93 93 NW 14 22 30.03 1017 10 16 0.01 0.25
5:08 am 05:08 Cloudy 36 2.2 34 1.1 93 93 NW 16 26 30.06 1018 10 16 0.00 0.00
5:28 am 05:28 Cloudy with Light Rain 36 2.2 34 1.1 93 93 NNW 22 35 30.06 1018 10 16 0.00 0.00
5:44 am 05:44 Cloudy 36 2.2 34 1.1 93 93 NNW 20 31 30.07 1018 10 16 0.00 0.00
5:53 am 05:53 Cloudy 36 2.2 33 0.6 89 89 NNW 17 28 30.05 1018 10 16 0.00 0.00
6:09 am 06:09 Cloudy with Light Rain 36 2.2 34 1.1 93 93 NNW 17 28 30.07 1018 10 16 0.00 0.00
6:33 am 06:33 Cloudy 36 2.2 34 1.1 93 93 NNW 16 26 30.08 1019 10 16 0.00 0.00
6:42 am 06:42 Cloudy 36 2.2 34 1.1 93 93 NNW 18 30 30.09 1019 10 16 0.00 0.00
6:53 am 06:53 Cloudy 36 2.2 34 1.1 93 93 NNW 16 26 30.09 1019 10 16 0.00 0.00
7:53 am 07:53 Cloudy with Light Rain 36 2.2 34 1.1 93 93 NNW 14 22 30.12 1020 10 16 0.00 0.00
8:40 am 08:40 Cloudy 38 3.3 35 1.7 89 89 N 13 20 30.12 1020 1 1 0.00 0.00
8:49 am 08:49 Cloudy with Light Snow 34 1 32 0 93 93 NNE 14 22 30.16 1021 2 3 0.02 0.51
8:53 am 08:53 Cloudy with Light Snow 33 0.6 31 -0.6 92 92 NNE 9 15 30.17 1022 2 3 0.02 0.51
8:56 am 08:56 Cloudy with Light Snow 33 0.6 32 0 96 96 NNE 9 15 30.16 1021 3 4 0.00 0.00
9:03 am 09:03 Cloudy with Light Rain 34 1.1 33 0.6 97 97 N 10 17 30.16 1021 8 13 0.00 0.00
9:14 am 09:14 Cloudy 36 2.2 34 1.1 93 93 N 12 19 30.15 1021 10 16 0.00 0.00
9:50 am 09:50 Cloudy with Rain 34 1 34 1 100 100 N 15 24 30.18 1022 2 3 0.03 0.76
9:53 am 09:53 Cloudy with Light Rain 34 1.1 32 0 92 92 N 12 19 30.19 1022 3 4 0.03 0.76
10:01 am 10:01 Cloudy with Light Rain 36 2.2 34 1.1 93 93 N 10 17 30.17 1022 8 13 0.01 0.25
10:11 am 10:11 Cloudy 38 3.3 35 1.7 89 89 N 12 19 30.15 1021 10 16 0.01 0.25
10:53 am 10:53 Cloudy 41 5 36 2.2 82 82 N 15 24 30.19 1022 10 16 0.01 0.25
11:16 am 11:16 Cloudy with Rain 34 1.1 32 0 92 92 NNE 16 26 30.21 1023 2 2 0.00 0.00
11:19 am 11:19 Cloudy with Light Snow 33 0.6 31 -0.6 92 92 NNE 13 20 30.20 1023 1 2 0.02 0.51
11:23 am 11:23 Cloudy with Rain 33 0.6 32 0 96 96 NE 9 15 30.20 1023 10 16 0.03 0.76
11:35 am 11:35 Cloudy with Light Rain 36 2.2 33 0.6 89 89 NNE 8 13 30.18 1022 8 13 0.03 0.76
11:53 am 11:53 Cloudy with Light Rain 38 3.3 35 1.7 89 89 N 7 11 30.20 1023 10 16 0.04 1.02
12:53 pm 12:53 Cloudy 45 7.2 36 2.2 71 71 NNE 16 26 30.18 1022 10 16 0.00 0.00
1:53 pm 13:53 Cloudy 41 5 31 -0.6 67 67 N 14 22 30.21 1023 10 16 0.00 0.00
2:53 pm 14:53 Cloudy 42 5.6 28 -2.2 58 58 N 20 31 30.21 1023 10 16 0.00 0.00
3:53 pm 15:53 Cloudy 46 7.8 28 -2.2 50 50 N 12 19 30.20 1023 10 16 0.00 0.00
4:53 pm 16:53 Cloudy 46 7.8 28 -2.2 50 50 NNE 13 20 30.20 1023 10 16 0.00 0.00
5:53 pm 17:53 Mostly Cloudy 47 8.3 30 -1.1 52 52 N 12 19 30.20 1023 10 16 0.00 0.00
6:53 pm 18:53 Cloudy 45 7.2 31 -0.6 58 58 NNE 14 22 30.22 1023 10 16 0.00 0.00
7:53 pm 19:53 Cloudy 42 5.6 31 -0.6 65 65 NNE 14 22 30.24 1024 10 16 0.00 0.00
8:53 pm 20:53 Partly Cloudy 39 3.9 32 0 76 76 NNW 3 6 30.28 1025 10 16 0.00 0.00
9:53 pm 21:53 Cloudy 37 2.8 32 0 82 82 WNW 6 9 30.29 1026 10 16 0.00 0.00
10:53 pm 22:53 Mostly Clear 35 1.7 31 -0.6 85 85 NW 5 7 30.30 1026 10 16 0.00 0.00
11:53 pm 23:53 Mostly Cloudy 35 1.7 32 0 89 89 WNW 5 7 30.31 1026 10 16 0.00 0.00

Powered by AerisWeather